SBIRS GEO-5 (USA 315) (48618 NORAD) Tracking and Keplerian Element Data

This shows tracking and keplerian element data for the satellite.

Feedback or suggestion? Click here.




ElementValue
Catalog48618
NameSBIRS GEO-5 (USA 315)
Epoch Orbit91
Epoch Day214.63427167
Epoch Year2021
RAAN327.5086
Inclination7.881
Eccentricity0.0002388
Argument of Perigee175.3271
Mean Anonmoly276.9283
Mean Motion1.0056086
Decay Rate-3.4E-07
L11 48618U 21042A 21214.63427167 -.00000034 00000-0 00000-0 0 9990
L22 48618 7.8810 327.5086 0002388 175.3271 276.9283 1.00560860 914

Live tracking and technical data element details for SBIRS GEO-5 (USA 315) (NORAD 48618). SBIRS GEO-5 (USA 315) can be tracked NOW for your location showing map with azimuth and elevation plus other details from your city location.

Track the satellite on the map from your city or location and see movement details for azimuth, elevation, latitude, longitude, range, height, and movement on the map or in text.







IsCatalogInMostPopularTable: catalog: 48618, numindb: 18
Update: records affected: 1



GetName: 48618 SBIRS GEO-5 (USA 315)

Hit Count: updated at: Tue, 03 Aug 2021 20:59:03 GMT